Regional Weather Roundup
Issued by NWS

Home | Current Version | Previous Version | Graphics & Text | Print | Product List | Glossary On
Versions: 1 2 3 4 5 6 7 8 9 10 11 12 13 14 15 16 17 18 19 20 21 22 23 24 25 26 27 28 29 30 31 32 33 34 35 36 37 38 39 40 41 42 43 44 45 46 47 48 49 50
865
ASUS45 KABQ 230301
RWRNM
NEW MEXICO REGIONAL WEATHER ROUNDUP
NATIONAL WEATHER SERVICE ALBUQUERQUE NM
900 PM MDT SAT APR 22 2017

NOTE: "FAIR" MEANS FEW OR NO CLOUDS BELOW 12,000 FEET AGL WITH NO
       SIGNIFICANT WEATHER OR OBSTRUCTIONS TO VISION.

      THIS PRODUCT IS RELEASED AS TWO VERSIONS.  ONE VERSION NEAR
      THE TOP OF THE HOUR CONTAINING PRELIMINARY DATA FROM ALBUQUERQUE
      AND OTHER STATIONS.  A FINAL VERSION WITH ADDITIONAL DATA IS
      ISSUED ABOUT 10 MINUTES AFTER THE HOUR.

NMZ501-503-504-510>518-230400-
NORTHWEST PLATEAU/NORTHCENTRAL MOUNTAINS

CITY           SKY/WX    TMP DP  RH WIND       PRES   REMARKS
FARMINGTON     FAIR      57  11  16 SW5       30.11R
LOS ALAMOS     FAIR      47  29  49 S12       30.27R
SANTA FE       FAIR      47  31  53 SE18      30.23R
TAOS             N/A     43  25  49 SE20      30.24R
ANGEL FIRE     CLOUDY    36  28  75 S8        30.34R WCI  29

$$
NMZ402-403-502-505>509-230400-
WESTCENTRAL MOUNTAINS/SOUTHWEST MOUNTAINS

CITY           SKY/WX    TMP DP  RH WIND       PRES   REMARKS
GALLUP         FAIR      57  17  21 NE7       30.15R
GRANTS         FAIR      56  26  31 SE10      30.18R
SILVER CITY    FAIR      62  32  33 SE9       30.11R

$$
NMZ407-409-411-412-230400-
SOUTHERN DESERTS

CITY           SKY/WX    TMP DP  RH WIND       PRES   REMARKS
DEMING         FAIR      69  35  28 E16G26    30.05R
LAS CRUCES     FAIR      64  33  32 SE17G24   30.11R
HOLLOMAN AFB   FAIR      65  35  33 S8        30.14R
ALAMOGORDO     FAIR      64  34  32 NW6       30.12R
T OR C         FAIR      69  33  26 SE12      30.09R

$$
NMZ519>523-230400-
CENTRAL VALLEYS/CENTRAL HIGHLANDS

CITY           SKY/WX    TMP DP  RH WIND       PRES   REMARKS
ALBUQUERQUE    MOCLDY    58  30  34 E25       30.16R
MORIARTY ARPT  FAIR      47  31  53 E9        30.29R
CLINES CORNERS FAIR      39  28  64 E16       30.31R WCI  30
BELEN          FAIR      60  29  31 SE16      30.15R
SOCORRO        FAIR      60  29  30 E6        30.14R

$$
NMZ524>526-539-540-230400-
SOUTHCENTRAL MOUNTAINS

CITY           SKY/WX    TMP DP  RH WIND       PRES   REMARKS
RUIDOSO        NOT AVBL

$$
NMZ527>531-230400-
NORTHEAST HIGHLANDS/NORTHEAST PLAINS

CITY           SKY/WX    TMP DP  RH WIND       PRES   REMARKS
LAS VEGAS      CLOUDY    41  29  62 NE7       30.32R
RATON          CLOUDY    42  31  64 SW6       30.29R
CLAYTON        FAIR      41  29  62 E5        30.29R

$$
NMZ532>537-230400-
EASTCENTRAL PLAINS

CITY           SKY/WX    TMP DP  RH WIND       PRES   REMARKS
SANTA ROSA     FAIR      46  28  51 CALM      30.28R
TUCUMCARI      CLOUDY    54  31  41 E6        30.25R
CANNON AFB     FAIR      51  30  45 E9        30.27R
CLOVIS AIRPORT FAIR      46  28  49 E6        30.27R

$$
NMZ028-029-538-230400-
SOUTHEAST PLAINS

CITY           SKY/WX    TMP DP  RH WIND       PRES   REMARKS
ROSWELL        FAIR      59  34  39 E8          N/A
ARTESIA        FAIR      61  34  36 E6        30.22R
CARLSBAD       FAIR      58  35  42 E6        30.20R
HOBBS          FAIR      57  32  38 NE10G17   30.24R


$$




USA.gov is the U.S. government's official web portal to all federal, state and local government web resources and services.